Temp
6 6 6 6 6 6 6 6 6 6 6 6 6 6 6 6 6 6 5 5 5 4 4 3 3 2 2 2 1 1 0 0 -0 -1 -2 -2 -3 -3 -3 -3 -4 -4 -5 -5
6 6 6 6 6 6 5 5 6 6 6 6 6 6 6 6 6 6 5 5 4 4 4 3 3 2 2 1 1 0 -0 -1 -1 -2 -2 -3 -4 -3 -3 -3 -4 -4 -6 -8
5 5 5 4 5 6 5 5 6 5 6 6 6 6 5 5 5 5 5 4 4 3 3 3 2 2 1 1 0 0 -0 -1 -2 -3 -2 -3 -2 -3 -4 -4 -6 -7 -7 -8
5 4 -1 5 5 5 5 5 5 5 6 5 5 5 5 4 4 4 4 3 3 2 2 1 1 1 0 0 -0 -1 -1 -2 -3 -4 -3 -3 -3 -4 -4 -6 -6 -7 -8 -9
4 3 4 4 4 4 5 5 5 5 5 5 4 4 4 4 3 3 2 2 1 1 1 0 0 0 0 -0 -0 -1 -2 -2 -3 -3 -3 -4 -4 -4 -6 -7 -7 -7 -8 -9
3 3 -2 4 4 4 4 4 4 4 4 4 4 3 3 3 2 2 2 1 1 1 0 0 0 0 -0 -0 -1 -2 -3 -3 -4 -3 -3 -5 -5 -7 -7 -7 -8 -8 -9 -10
4 3 3 4 4 4 3 4 4 4 3 3 3 2 2 2 2 2 1 1 0 0 -0 -0 -1 -1 -1 -2 -3 -4 -4 -4 -4 -5 -6 -6 -7 -7 -7 -8 -9 -9 -10 -10
3 2 2 3 3 3 4 4 4 3 3 2 2 2 2 2 1 1 0 0 -0 -1 -1 -1 -2 -3 -4 -5 -4 -5 -6 -6 -6 -6 -7 -7 -7 -8 -9 -9 -10 -10 -10 -11
3 3 3 3 3 3 3 3 3 3 2 2 1 1 1 1 0 0 -0 -1 -1 -2 -2 -4 -5 -5 -5 -5 -5 -6 -7 -7 -7 -7 -8 -8 -9 -9 -10 -10 -10 -10 -11 -11
3 3 3 3 3 3 3 3 2 2 2 1 1 1 0 -0 -1 -1 -1 -2 -2 -3 -5 -5 -5 -5 -5 -7 -7 -7 -7 -7 -8 -8 -9 -9 -10 -10 -10 -10 -11 -11 -11 -12
3 3 3 3 2 2 2 2 2 1 1 1 0 0 -0 -1 -1 -1 -2 -2 -3 -4 -5 -6 -6 -6 -6 -7 -7 -8 -8 -8 -9 -9 -9 -10 -10 -10 -11 -11 -11 -12 -12 -13
5 4 3 3 2 2 2 1 1 1 0 0 -0 -1 -1 -1 -2 -2 -3 -3 -4 -5 -5 -6 -6 -7 -7 -8 -8 -8 -9 -9 -10 -10 -10 -10 -11 -10 -11 -12 -12 -13 -13 -14
4 3 3 2 2 2 1 1 1 0 -0 -1 -1 -1 -2 -2 -2 -3 -4 -4 -5 -6 -6 -7 -7 -8 -8 -9 -9 -9 -10 -10 -10 -10 -10 -11 -11 -11 -11 -11 -12 -12 -13 -15
3 2 2 2 2 1 1 1 0 -0 -1 -1 -1 -2 -2 -3 -4 -4 -5 -5 -6 -7 -8 -8 -8 -9 -9 -9 -10 -10 -10 -10 -11 -11 -11 -11 -11 -12 -12 -12 -12 -12 -13 -14
3 2 2 2 1 1 1 0 -0 -1 -1 -2 -2 -3 -4 -4 -5 -5 -6 -7 -8 -8 -8 -9 -9 -9 -10 -10 -11 -11 -11 -11 -11 -11 -12 -12 -12 -13 -13 -13 -14 -14 -14 -14
2 2 2 1 1 0 -0 -1 -1 -2 -2 -3 -4 -4 -5 -6 -6 -7 -8 -8 -8 -9 -9 -10 -10 -10 -11 -11 -11 -11 -11 -12 -12 -12 -12 -13 -13 -14 -14 -15 -15 -15 -15 -15
2 2 1 1 -0 -1 -1 -1 -2 -3 -4 -4 -5 -6 -7 -7 -8 -8 -8 -9 -10 -10 -10 -11 -11 -11 -11 -11 -12 -12 -12 -12 -12 -13 -13 -14 -14 -15 -15 -16 -16 -16 -16 -16
1 0 -0 -1 -1 -2 -2 -3 -3 -4 -5 -6 -7 -8 -8 -9 -10 -10 -10 -10 -10 -11 -11 -11 -12 -12 -12 -12 -12 -12 -12 -13 -13 -13 -14 -15 -16 -16 -17 -17 -17 -17 -17 -17
-1 -2 -2 -2 -3 -3 -4 -4 -5 -6 -7 -8 -8 -9 -10 -11 -11 -11 -11 -11 -11 -12 -12 -12 -13 -13 -13 -13 -13 -13 -13 -14 -14 -15 -16 -17 -17 -18 -18 -18 -18 -18 -19 -19
-2 -3 -4 -4 -4 -5 -6 -7 -7 -8 -9 -9 -10 -11 -12 -11 -11 -11 -11 -12 -12 -13 -13 -13 -13 -13 -13 -13 -13 -14 -14 -15 -15 -16 -17 -18 -18 -19 -19 -20 -20 -20 -20 -22
-4 -5 -5 -5 -6 -7 -7 -8 -9 -9 -9 -10 -12 -11 -11 -11 -12 -12 -12 -13 -13 -13 -13 -13 -13 -13 -14 -14 -14 -15 -15 -16 -17 -18 -18 -19 -19 -20 -20 -21 -21 -21 -22 -22
-6 -6 -7 -7 -8 -9 -9 -9 -10 -10 -11 -12 -11 -12 -12 -12 -13 -13 -13 -14 -14 -14 -14 -14 -14 -14 -14 -15 -15 -16 -17 -17 -18 -19 -19 -20 -20 -21 -21 -21 -21 -22 -22 -23
-7 -8 -8 -9 -9 -9 -10 -10 -11 -12 -12 -12 -12 -13 -13 -13 -14 -14 -14 -14 -14 -14 -14 -14 -14 -15 -15 -16 -17 -17 -18 -19 -19 -20 -20 -21 -21 -21 -21 -22 -22 -22 -22 -23
-9 -9 -9 -9 -10 -10 -11 -12 -12 -12 -12 -13 -13 -14 -14 -14 -14 -14 -14 -14 -14 -14 -14 -15 -15 -16 -16 -17 -18 -19 -19 -20 -20 -21 -21 -22 -22 -22 -22 -22 -22 -22 -22 -23
-9 -10 -10 -10 -11 -11 -12 -12 -13 -13 -13 -13 -14 -14 -14 -14 -14 -14 -15 -15 -15 -15 -15 -16 -16 -17 -18 -19 -19 -20 -20 -21 -21 -22 -22 -22 -22 -22 -22 -22 -22 -22 -22 -22
-10 -10 -11 -11 -12 -12 -12 -13 -13 -13 -13 -14 -14 -14 -14 -15 -15 -15 -15 -15 -15 -16 -16 -17 -18 -18 -19 -19 -20 -20 -21 -21 -22 -22 -22 -22 -22 -23 -23 -22 -22 -23 -23 -23
-11 -11 -12 -12 -12 -13 -13 -13 -14 -14 -14 -15 -15 -15 -15 -16 -16 -16 -16 -16 -17 -17 -18 -18 -19 -19 -20 -20 -21 -21 -22 -22 -22 -23 -23 -23 -23 -23 -23 -23 -23 -23 -24 -23
Height
3086 3088 3089 3090 3091 3092 3091 3092 3090 3089 3088 3091 3090 3090 3090 3090 3091 3092 3093 3093 3094 3094 3095 3095 3094 3091 3091 3089 3089 3088 3086 3085 3083 3081 3078 3077 3074 3071 3066 3064 3059 3055 3049 3044
3083 3084 3085 3086 3087 3088 3087 3087 3086 3086 3085 3086 3086 3086 3086 3087 3087 3088 3089 3090 3090 3089 3089 3088 3086 3084 3083 3083 3082 3080 3078 3077 3075 3073 3070 3068 3066 3061 3057 3053 3049 3044 3041 3039
3078 3080 3081 3079 3080 3082 3082 3081 3082 3080 3083 3083 3083 3083 3081 3082 3083 3085 3085 3086 3086 3085 3084 3082 3079 3078 3077 3075 3074 3073 3070 3069 3066 3063 3062 3059 3054 3051 3049 3044 3040 3038 3034 3029
3074 3076 3078 3071 3073 3074 3073 3073 3075 3075 3076 3077 3078 3078 3079 3079 3081 3082 3082 3082 3081 3079 3078 3075 3073 3072 3070 3069 3067 3065 3063 3061 3058 3055 3053 3050 3046 3044 3039 3036 3034 3029 3025 3021
3069 3069 3068 3068 3068 3068 3068 3067 3067 3069 3070 3072 3073 3074 3076 3077 3078 3078 3077 3076 3075 3073 3071 3068 3066 3065 3063 3061 3059 3057 3055 3053 3050 3047 3044 3040 3037 3035 3030 3029 3025 3020 3017 3015
3063 3064 3065 3063 3063 3064 3066 3065 3065 3066 3067 3069 3070 3071 3072 3073 3072 3072 3071 3069 3068 3066 3063 3062 3060 3058 3056 3054 3052 3050 3048 3046 3043 3038 3033 3033 3032 3028 3024 3020 3016 3013 3011 3008
3057 3057 3056 3059 3060 3061 3062 3064 3062 3063 3065 3066 3067 3069 3069 3068 3067 3066 3065 3063 3062 3060 3058 3056 3054 3051 3049 3047 3045 3043 3042 3039 3037 3035 3031 3027 3023 3020 3016 3013 3009 3006 3003 3001
3052 3053 3053 3053 3055 3056 3056 3058 3060 3062 3063 3064 3065 3065 3064 3063 3062 3060 3059 3058 3056 3054 3052 3049 3046 3044 3042 3040 3038 3037 3035 3032 3029 3026 3023 3019 3015 3012 3009 3005 3002 2999 2996 2993
3046 3045 3046 3047 3048 3050 3052 3055 3056 3058 3060 3061 3061 3061 3059 3058 3057 3055 3053 3052 3050 3048 3045 3042 3040 3037 3035 3033 3031 3029 3026 3023 3020 3017 3014 3011 3008 3004 3001 2998 2995 2991 2987 2983
3040 3040 3042 3044 3045 3047 3049 3051 3053 3054 3055 3056 3056 3055 3054 3053 3051 3050 3047 3045 3043 3040 3038 3036 3033 3030 3028 3025 3022 3020 3018 3015 3013 3010 3007 3003 3000 2997 2994 2991 2986 2981 2976 2971
3032 3035 3037 3039 3041 3043 3044 3046 3047 3049 3050 3050 3050 3049 3048 3047 3044 3042 3040 3038 3035 3033 3030 3029 3026 3023 3021 3019 3016 3014 3012 3009 3006 3003 3000 2997 2994 2990 2985 2981 2975 2969 2964 2958
3024 3028 3032 3034 3035 3037 3038 3040 3041 3042 3043 3043 3043 3042 3041 3039 3037 3035 3032 3030 3028 3025 3023 3021 3018 3017 3015 3013 3010 3008 3006 3003 3000 2997 2994 2989 2984 2980 2976 2970 2964 2958 2952 2946
3022 3025 3026 3029 3030 3030 3032 3033 3034 3035 3035 3035 3035 3034 3033 3031 3029 3027 3025 3023 3021 3019 3017 3015 3013 3012 3010 3007 3005 3003 3000 2997 2993 2989 2984 2979 2974 2967 2960 2959 2951 2946 2940 2933
3017 3019 3021 3022 3024 3025 3025 3026 3027 3027 3027 3027 3027 3026 3024 3023 3021 3019 3017 3016 3015 3013 3011 3010 3008 3006 3004 3002 2999 2995 2992 2987 2983 2978 2973 2967 2960 2953 2946 2939 2933 2930 2925 2918
3012 3014 3015 3017 3018 3019 3019 3019 3020 3020 3020 3019 3019 3017 3016 3015 3014 3013 3012 3011 3009 3008 3006 3004 3002 3000 2997 2994 2990 2987 2982 2978 2973 2967 2961 2954 2947 2940 2932 2925 2918 2911 2906 2903
3006 3008 3009 3009 3010 3011 3012 3013 3013 3013 3012 3011 3011 3010 3009 3008 3008 3007 3006 3005 3004 3002 3000 2998 2996 2993 2990 2986 2982 2978 2973 2968 2962 2955 2949 2942 2934 2927 2919 2912 2905 2898 2893 2888
3000 3001 3001 3002 3002 3003 3004 3005 3005 3004 3004 3003 3003 3003 3003 3003 3003 3002 3001 2999 2998 2996 2995 2992 2989 2985 2981 2977 2973 2968 2963 2957 2950 2943 2936 2928 2920 2913 2905 2898 2891 2886 2880 2876
2992 2993 2993 2994 2995 2996 2996 2997 2997 2997 2996 2995 2996 2997 2997 2997 2997 2996 2995 2994 2992 2990 2988 2984 2981 2977 2972 2968 2963 2958 2951 2945 2938 2931 2923 2916 2908 2901 2894 2887 2880 2874 2868 2863
2985 2986 2987 2987 2988 2988 2988 2989 2989 2989 2989 2989 2990 2991 2991 2992 2992 2991 2989 2988 2985 2983 2980 2977 2973 2968 2963 2958 2953 2946 2940 2933 2927 2919 2912 2905 2898 2891 2884 2878 2871 2864 2858 2853
2978 2979 2980 2979 2979 2980 2981 2982 2983 2983 2984 2985 2985 2986 2987 2987 2987 2985 2983 2981 2979 2976 2973 2969 2964 2959 2954 2948 2942 2936 2929 2922 2916 2909 2902 2895 2889 2883 2876 2870 2863 2856 2851 2847
2972 2973 2972 2972 2972 2974 2975 2977 2979 2979 2980 2980 2982 2983 2983 2982 2980 2979 2976 2974 2971 2967 2964 2960 2955 2949 2944 2938 2932 2925 2918 2911 2905 2899 2892 2886 2880 2874 2868 2862 2856 2850 2845 2840
2966 2966 2966 2967 2969 2971 2972 2974 2974 2975 2976 2977 2978 2978 2977 2976 2974 2971 2969 2966 2962 2959 2954 2949 2944 2938 2933 2927 2921 2914 2908 2901 2895 2889 2883 2878 2872 2867 2861 2855 2850 2844 2839 2834
2962 2962 2964 2966 2968 2969 2970 2970 2970 2972 2973 2973 2973 2972 2971 2969 2967 2964 2961 2958 2954 2950 2945 2939 2934 2928 2922 2916 2910 2904 2898 2892 2886 2881 2875 2870 2865 2859 2854 2849 2843 2838 2833 2828
2961 2962 2963 2965 2966 2966 2966 2966 2968 2968 2968 2967 2966 2965 2964 2962 2959 2956 2952 2948 2944 2939 2934 2929 2923 2918 2912 2907 2901 2895 2889 2884 2879 2873 2869 2864 2858 2853 2848 2842 2837 2832 2827 2822
2960 2961 2962 2962 2962 2963 2963 2963 2963 2962 2962 2961 2960 2959 2957 2954 2951 2947 2943 2939 2934 2929 2924 2919 2914 2909 2903 2898 2892 2886 2881 2876 2872 2867 2862 2857 2852 2847 2842 2836 2831 2826 2821 2816
2959 2959 2959 2959 2959 2959 2958 2958 2957 2956 2955 2954 2952 2950 2947 2944 2941 2938 2933 2929 2924 2920 2915 2910 2904 2899 2893 2889 2884 2878 2873 2869 2864 2860 2855 2850 2845 2840 2835 2829 2824 2818 2813 2809
2956 2956 2955 2955 2954 2953 2952 2951 2950 2949 2947 2945 2943 2941 2938 2935 2931 2927 2923 2919 2914 2910 2904 2899 2894 2889 2884 2880 2876 2870 2866 2861 2857 2853 2848 2843 2838 2833 2827 2821 2815 2810 2805 2800
Wind_Speed
24 19 19 19 14 13 20 18 20 22 22 18 18 15 12 11 15 17 16 18 18 17 18 20 24 27 28 29 29 30 32 30 30 31 33 33 33 37 42 44 43 51 51 51
21 19 20 23 23 21 20 20 21 16 16 15 19 17 14 14 15 18 20 20 18 18 18 21 22 22 21 26 27 27 28 31 31 33 33 33 35 44 45 50 51 54 39 34
20 21 23 26 33 33 31 27 27 25 22 20 20 15 17 16 17 17 17 16 15 18 19 21 20 20 19 18 20 25 27 29 33 33 36 40 46 44 47 54 45 33 37 36
15 14 4 28 27 27 30 32 33 32 31 25 18 21 20 18 16 15 14 14 16 18 19 21 22 22 24 25 26 23 25 27 31 34 38 41 44 47 51 39 38 43 32 23
10 17 17 12 15 21 18 18 18 17 18 19 21 20 18 14 12 13 15 17 17 19 22 25 27 28 26 25 25 25 27 29 32 36 41 41 38 47 41 41 43 32 28 27
14 7 7 18 14 18 18 15 18 16 15 17 18 15 13 12 14 17 17 19 21 22 24 25 26 26 26 27 27 26 26 29 33 42 50 37 43 37 42 43 32 30 29 31
24 15 15 20 16 15 20 15 21 21 17 16 14 14 13 16 20 21 21 22 22 23 24 26 28 28 27 28 27 26 24 26 28 33 40 37 39 43 39 33 33 31 33 34
26 19 14 19 19 24 20 24 14 14 19 17 16 16 19 21 21 22 23 24 23 24 27 29 30 28 28 26 27 29 32 36 37 36 37 38 36 33 33 34 33 35 37 37
19 21 21 13 15 22 25 17 13 10 12 14 15 20 20 20 21 23 23 24 25 27 30 28 28 29 30 30 30 33 34 35 34 32 30 31 32 33 32 35 38 39 40 41
20 23 19 16 14 14 16 16 14 12 14 16 19 19 22 23 24 23 24 25 28 30 26 24 28 31 32 35 33 31 28 27 27 29 31 32 32 34 37 38 40 42 43 44
24 22 18 18 17 16 16 15 14 16 19 21 22 23 25 26 28 26 28 29 29 29 28 29 31 31 27 24 23 24 26 28 29 31 33 34 36 38 40 41 43 45 46 47
27 22 21 16 15 17 18 20 21 23 24 25 26 27 28 29 28 28 29 29 30 31 30 27 23 21 22 23 24 24 26 28 30 32 34 36 39 41 42 44 46 48 49 49
23 19 18 18 19 19 20 23 25 25 25 26 27 28 27 28 28 29 28 28 27 23 21 21 21 21 22 23 25 26 28 30 32 35 37 41 43 47 50 48 49 50 51 50
22 22 21 20 20 21 22 23 25 26 26 27 27 27 27 27 26 26 23 21 20 20 20 20 21 22 23 25 27 29 32 35 38 40 43 46 48 50 51 53 54 53 50 49
25 25 23 22 23 24 25 26 26 27 28 28 28 27 25 25 22 20 19 19 19 19 19 21 23 25 26 28 31 33 36 39 41 44 46 48 49 51 52 52 52 51 49 45
24 26 29 30 29 28 28 28 28 28 27 27 25 24 21 19 17 17 17 18 18 19 20 22 24 27 29 31 33 36 39 42 45 47 48 49 50 50 50 49 48 46 44 42
28 31 33 34 29 29 29 27 28 27 26 25 23 19 16 15 15 16 17 18 19 20 23 25 27 29 32 35 38 40 43 45 46 48 49 50 50 50 49 48 46 45 44 40
32 33 32 32 28 25 27 27 26 25 24 20 18 16 14 15 15 17 18 19 21 23 25 27 30 33 35 38 41 43 45 46 47 49 50 49 48 46 45 46 46 45 42 38
31 30 27 25 23 25 26 24 23 22 19 18 16 15 13 13 15 16 19 21 24 26 27 30 33 36 39 41 44 45 46 47 48 48 47 46 44 43 42 42 41 41 38 31
25 26 27 26 24 22 19 18 18 18 17 15 11 10 12 14 16 18 21 23 25 28 30 34 36 39 42 43 44 45 46 47 47 46 45 43 42 41 39 38 37 36 32 26
25 25 22 19 18 17 17 16 15 14 11 9 9 12 14 16 18 21 23 25 28 31 33 35 39 42 43 44 45 45 46 45 45 43 42 41 39 37 36 35 34 33 31 27
18 16 16 16 16 15 13 13 12 9 7 9 13 15 16 18 20 23 25 28 31 33 36 40 43 44 44 45 45 45 45 44 42 41 40 38 36 35 34 33 32 31 29 29
9 10 11 11 12 13 13 10 7 6 10 13 15 16 17 20 23 26 28 30 32 37 41 43 43 44 45 44 44 44 43 42 39 38 37 35 34 33 32 31 31 31 30 29
6 9 11 11 12 11 8 7 8 12 14 16 17 17 20 23 27 29 31 34 38 43 44 44 44 44 44 43 42 41 40 39 37 35 33 32 31 31 31 31 30 30 30 29
10 10 10 11 9 9 10 12 14 16 17 19 21 23 25 28 31 33 35 39 43 45 44 44 43 43 42 40 39 39 38 36 34 32 31 30 30 30 30 31 32 32 31 30
10 11 10 10 12 14 16 18 20 21 22 24 26 27 29 32 34 36 40 43 45 44 43 42 41 41 40 39 37 36 35 34 32 30 30 30 31 30 32 35 36 35 33 31
12 13 14 15 17 19 21 23 25 26 27 28 29 31 33 35 37 40 43 43 43 42 41 41 40 39 38 36 35 34 33 31 30 29 30 31 32 33 35 36 34 33 32 31
Wind_Direction
235 247 239 227 231 243 236 245 246 264 264 266 260 272 266 252 246 254 254 253 255 263 272 280 276 279 284 282 282 281 282 286 296 293 291 287 289 302 275 300 297 296 289 293
224 229 235 245 248 244 251 253 258 265 268 267 263 268 261 248 249 258 253 259 270 275 280 284 281 285 279 275 279 284 285 285 286 285 288 291 294 286 285 285 287 287 292 308
238 245 249 250 248 253 257 252 258 257 268 266 271 247 236 237 232 240 250 260 268 281 285 288 295 295 293 290 287 294 287 285 286 287 283 286 279 291 290 289 286 302 305 306
238 239 267 261 259 257 254 253 248 257 264 267 245 226 224 228 233 244 259 277 290 290 287 288 288 287 288 290 291 284 286 287 288 282 283 283 283 288 287 285 297 309 307 299
211 225 245 244 243 244 236 241 235 232 230 231 218 225 225 233 253 282 298 298 291 287 283 282 285 288 289 289 286 283 286 289 291 288 284 282 279 288 281 297 306 305 301 291
203 211 211 265 270 240 225 233 226 218 228 224 227 235 264 280 290 300 298 295 293 290 288 288 289 290 290 288 288 290 291 294 295 290 275 285 296 291 298 304 298 297 291 296
227 234 246 253 268 246 215 246 238 228 223 231 242 260 269 288 295 294 296 294 291 289 289 291 293 294 292 293 294 296 296 294 286 281 292 288 289 292 295 294 296 294 296 299
227 230 253 249 239 225 242 239 245 234 233 239 252 258 283 290 293 295 294 291 289 292 294 294 293 295 299 300 296 295 289 286 289 290 291 288 290 292 294 295 294 296 297 300
223 237 241 244 236 237 237 241 260 250 248 250 262 281 281 290 295 294 293 294 294 294 294 293 293 292 294 292 291 292 291 290 290 289 289 292 294 294 294 295 296 298 298 298
235 237 238 239 231 221 232 239 248 250 248 259 277 277 285 290 299 294 290 290 290 290 289 283 283 285 286 287 292 292 292 293 293 295 298 299 298 297 297 297 297 296 296 297
231 238 236 237 237 239 244 246 251 251 258 271 275 277 281 286 293 289 289 289 288 287 284 282 283 288 296 298 296 296 297 298 299 300 299 298 297 297 297 298 297 298 297 296
244 251 249 255 251 249 249 245 246 252 261 266 269 272 277 283 284 286 287 285 284 286 290 292 295 297 297 297 298 299 299 299 298 298 299 300 300 300 299 299 298 297 295 293
247 249 247 247 250 252 249 249 251 255 261 264 267 273 278 282 284 286 284 285 286 287 289 291 293 295 297 298 300 301 301 301 301 302 302 303 303 303 302 301 299 297 294 291
236 240 242 245 250 253 255 257 258 260 264 269 273 277 281 281 282 280 280 281 284 286 288 291 294 296 299 301 303 304 306 307 308 307 307 306 306 305 303 303 303 302 300 297
231 235 244 248 252 255 256 258 259 262 267 271 275 276 278 279 277 276 278 280 282 285 290 295 299 302 306 308 309 309 309 308 308 308 308 307 307 306 306 305 304 303 303 301
233 237 241 243 247 250 254 258 261 265 268 270 273 274 272 268 269 272 275 279 284 292 298 302 304 305 306 308 308 309 310 310 310 309 309 309 309 309 308 307 306 305 304 303
239 241 241 240 245 258 254 258 261 263 267 269 269 265 259 259 267 276 283 288 293 298 301 304 305 307 309 311 312 312 312 312 312 312 313 313 313 313 312 311 310 308 306 302
239 238 238 242 251 250 254 257 261 264 262 255 250 247 255 272 280 284 289 295 299 301 304 307 309 311 312 313 313 314 314 314 315 316 316 315 316 315 315 314 313 312 308 303
239 244 251 255 255 256 257 260 250 242 237 235 240 258 270 279 283 290 296 299 301 305 308 309 311 312 314 315 315 315 316 317 317 316 317 317 317 317 317 318 318 316 313 308
251 260 263 264 259 257 257 238 225 224 232 245 260 275 280 281 288 293 297 299 303 306 309 312 314 314 315 316 316 316 317 316 317 318 318 318 318 318 319 321 323 322 313 302
251 258 263 259 254 245 230 224 228 234 243 261 277 276 282 287 292 296 298 304 308 311 312 313 315 316 316 316 316 316 316 317 318 318 317 317 318 319 319 320 322 326 325 301
260 258 250 242 236 228 226 224 230 245 269 274 273 280 288 293 298 303 307 307 309 311 314 317 317 317 317 317 317 316 317 317 318 317 317 318 318 319 320 320 320 320 322 320
250 241 234 226 221 225 232 243 258 269 267 272 280 287 295 302 306 306 306 308 311 314 317 317 317 316 316 316 316 316 316 317 317 317 317 318 319 320 322 323 323 323 318 315
220 215 222 231 237 241 253 260 260 264 269 276 283 289 297 305 308 309 309 311 314 317 317 317 316 316 315 315 315 315 316 317 316 316 317 317 319 320 322 323 323 323 323 320
234 235 237 241 255 263 261 257 261 270 277 281 284 289 296 304 308 309 310 312 315 315 315 315 314 313 313 314 314 315 315 315 315 315 315 316 318 318 320 322 322 321 319 317
248 249 253 264 272 270 264 264 268 272 277 280 284 291 297 303 306 307 309 312 312 312 312 311 311 312 313 314 314 314 313 313 314 314 315 316 317 318 319 321 319 316 314 313
269 267 270 277 279 274 271 270 273 275 278 282 287 293 298 301 304 306 308 309 309 309 310 311 311 311 311 311 312 312 311 312 313 314 315 316 317 319 321 321 320 319 317 314